World > North America > United States > Iowa > Jefferson   City of Jefferson, IA

Jefferson, IA Hourly Weather Updates

Feedback E-mail the Weather

Quick Clicks

Jefferson, IA Weather Maps

°F °C°F °C
Jefferson Weather Map
UTC Time: 6/17/2024, 20:54
Your Time:

Jefferson, IA Regional Weather

Expires:202406172100;;191805
ASUS43 KDMX 172006
RWRIA 

WEATHER ROUNDUP FOR IOWA
NATIONAL WEATHER SERVICE DES MOINES IA
300 PM CDT MON JUN 17 2024

NOTE: "FAIR" INDICATES FEW OR NO CLOUDS BELOW 12,000 FEET WITH NO
SIGNIFICANT WEATHER AND/OR OBSTRUCTIONS TO VISIBILITY.

* - THESE STATIONS ARE NOT NWS STATIONS...THUS NOT UNDER NWS
QUALITY CONTROL.  THEY ALSO DO NOT REPORT WEATHER SUCH 
AS PRECIPITATION OR FOG.  


IAZ001>003-012>014-020>022-031>034-043>046-172100-
   NORTHWEST IOWA
  
CITY           SKY/WX    TMP DP  RH WIND       PRES   REMARKS
CARROLL *      PTSUNNY   88  70  55 S21G26    29.72F HX  92  TC  31   
CHEROKEE *     CLOUDY    81  70  69 SE15G21   29.73F HX  84  TC  27   
DENISON *      MOSUNNY   86  79  79 S14G24    29.74F HX  99  TC  30   
LE MARS *      CLOUDY    75  70  83 E7        29.73F TC  24           
MAURICE *      CLOUDY    72  72 100 E15       29.74F TC  22           
SHELDON *      HVY RAIN  68  68 100 NE12      29.77R VSB 1   TC  20   
SIOUX CITY     CLOUDY    77  70  79 E10       29.71F TC  25           
SPENCER        PTSUNNY   78  69  73 SE14      29.77F HX  80  TC  26   
STORM LAKE *   MOSUNNY   81  72  74 SE20      29.76F HX  84  TC  27   
$$
 

SKY/WX - Weather  TMP - Temperature  DP - Dew Point  RH - Humidity
WIND - Wind Direction/Speed PRES - Barometric Pressure VSB - Visibility
WCI - Wind Chill Index E13G22 Wind - East Wind 13 mph/Gusts of 22 mph

Trending Headlines

Trending Entertainment Headlines

Jefferson Radar Loop

Use the map search tool if you want to place a location marker on the radar map...

Jefferson Quick Facts

National Two Day Weather Forecast


E-mail the Jefferson Weather Forecast

Voice your opinion or tell us about page issues...